Regional Weather Roundup
Issued by NWS Albany, NY

Home | Current Version | Previous Version | Graphics & Text | Print | Product List | Glossary Off
Versions: 1 2 3 4 5 6 7 8 9 10 11 12 13 14 15 16 17 18 19 20 21 22 23 24 25 26 27 28 29 30 31 32 33 34 35 36 37 38 39 40 41 42 43 44 45 46 47 48 49 50

000
ASUS41 KALY 041910
RWRALY

NEW YORK STATE HOURLY WEATHER ROUNDUP
NATIONAL WEATHER SERVICE ALBANY NY
300 PM EDT MON MAY 04 2015

NOTE: "FAIR" INDICATES FEW OR NO CLOUDS BELOW 12,000 FEET WITH NO
SIGNIFICANT WEATHER AND/OR NO OBSTRUCTIONS TO VISIBILITY.

NYZ032-033-038>043-046>054-057>066-NYZ062>081-042000-
EAST


CITY           SKY/WX    TMP DP  RH WIND       PRES   REMARKS
ALBANY         PTSUNNY   85  37  18 S12G23    30.05F
GLENS FALLS    MOSUNNY   83  39  21 SW16G26   30.04F
POUGHKEEPSIE   MOSUNNY   86  37  17 SW13G25   30.09F
NEWBURGH       MOSUNNY   82  41  23 S17G29    30.13F
MONTGOMERY     SUNNY     85  42  22 SW16G28   30.10F
WHITE PLAINS   MOSUNNY   80  42  25 S18G28    30.15F
ISLIP          MOSUNNY   72  45  37 S14       30.18F
NEW YORK CITY  MOSUNNY   79  44  28 S21       30.15F
CENTRAL PARK   SUNNY     81  44  27 S10G20    30.18F
$$

NYZ005>009-017-018-044>046-055-056-042000-
CENTRAL


CITY           SKY/WX    TMP DP  RH WIND       PRES   REMARKS
FULTON         CLOUDY    81  43  26 S12       30.03F
SYRACUSE       PTSUNNY   84  42  22 SW13G24   30.03F
ROME           LGT RAIN  82  40  22 SW12G21   30.06F
ELMIRA         MOSUNNY   84  42  22 SW17G28   30.06F
BINGHAMTON     MOSUNNY   77  39  25 SW14G23   30.11F
MONTICELLO     FAIR      81  37  21 SW9       30.15S
$$

NYZ026>034-041>043-042000-
NORTH


CITY           SKY/WX    TMP DP  RH WIND       PRES   REMARKS
WATERTOWN      SUNNY     76  45  33 W13G21    30.02F
FORT DRUM      NOT AVBL
MASSENA        SUNNY     82  44  26 SW22G41   29.96F
SARANAC LAKE   MOSUNNY   78  35  21 SW21G28   30.03F
PLATTSBURGH    MOSUNNY   85  35  16 SW13G24   29.95F
$$

NYZ001>004-010>016-019>021-042000-
WEST


CITY           SKY/WX    TMP DP  RH WIND       PRES   REMARKS
NIAGARA FALLS  PTSUNNY   76  47  35 W23G33    30.04S
BUFFALO        PTSUNNY   78  46  32 W22G35    30.05S
DUNKIRK        PTSUNNY   72  47  40 SW17G25   30.08R
JAMESTOWN      PTSUNNY   73  45  35 SW16G23   30.13R
WELLSVILLE     SUNNY     79  37  22 SW13G26   30.13F
ROCHESTER      CLOUDY    79  45  29 W12       30.04S
PENN YAN       PTSUNNY   82  40  22 S13G21    30.06F
$$

             KEY
       WCI = WIND CHILL INDEX
       VSB = VISIBILITY
       HX  = HEAT INDEX
$$



USA.gov is the U.S. government's official web portal to all federal, state and local government web resources and services.